Weather History for KCVX - June, 2015

Change the Weather History Date:

Monday, June 29, 2015

  Actual Average Record
Temperature  
Mean Temperature 66 °F -  
Max Temperature 79 °F 77 °F 86 °F (2001)
Min Temperature 53 °F 58 °F 42 °F (2007)
Cooling Degree Days 1    
Growing Degree Days 16 (Base 50)    
Moisture  
Dew Point 51 °F    
Average Humidity 62    
Maximum Humidity 91    
Minimum Humidity 21    
Precipitation  
Precipitation 0.00 in - - ()
Sea Level Pressure  
Sea Level Pressure 29.85 in    
Wind  
Wind Speed 3 mph (SW)    
Max Wind Speed 14 mph    
Max Gust Speed -    
Visibility 10 miles    
Events      
Averages and records for this station are not official NWS values.
T = Trace of Precipitation, MM = Missing Value Source: NWS Daily Summary

Daily Weather History Graph

Daily Weather History Graph

Search for Another Location

Airport or City:

Trip Planner

Search our weather history database for the weather conditions in past years. The results will help you decide how hot, cold, wet, or windy it might be!

Date:

Astronomy

Jun. 29, 2015 Rise Set
Actual Time 5:55 AM EDT 9:33 PM EDT
Civil Twilight 5:18 AM EDT 10:10 PM EDT
Nautical Twilight 4:28 AM EDT 11:00 PM EDT
Astronomical Twilight 3:21 AM EDT 12:07 AM EDT
Moon 7:04 PM EDT (6/29) 4:07 AM EDT (6/29)
Length of Visible Light 16h 52m
Length of Day
15h 37m
Waxing Gibbous, 93% of the Moon is Illuminated
Jun 29
Waxing Gibbous
Jul 1
Full
Jul 8
Last Quarter
Jul 15
New
Jul 24
First Quarter

Hourly Weather History & Observations

Time (EDT) Temp. Dew Point Humidity Pressure Visibility Wind Dir Wind Speed Gust Speed Precip Events Conditions
12:15 AM 57.4 °F 52.7 °F 84% 29.88 in 10.0 mi Calm Calm - N/A   Clear
12:35 AM 56.5 °F 52.3 °F 86% 29.88 in 10.0 mi Calm Calm - N/A   Clear
12:54 AM 56.7 °F 52.3 °F 85% 29.87 in 10.0 mi WSW 4.6 mph - N/A   Clear
1:15 AM 57.4 °F 52.0 °F 82% 29.87 in 10.0 mi SSE 3.5 mph - N/A   Clear
1:34 AM 55.4 °F 51.4 °F 87% 29.87 in 10.0 mi Calm Calm - N/A   Clear
1:55 AM 54.5 °F 50.9 °F 88% 29.87 in 10.0 mi Calm Calm - N/A   Clear
2:14 AM 55.0 °F 50.9 °F 86% 29.87 in 10.0 mi SSE 3.5 mph - N/A   Clear
2:35 AM 53.8 °F 50.7 °F 89% 29.87 in 10.0 mi Calm Calm - N/A   Clear
2:54 AM 57.2 °F 50.9 °F 79% 29.87 in 10.0 mi Calm Calm - N/A   Clear
3:15 AM 54.7 °F 50.9 °F 87% 29.86 in 10.0 mi SE 3.5 mph - N/A   Clear
3:35 AM 54.9 °F 51.1 °F 87% 29.86 in 10.0 mi Calm Calm - N/A   Clear
3:54 AM 55.6 °F 51.4 °F 86% 29.86 in 10.0 mi Calm Calm - N/A   Clear
4:15 AM 55.8 °F 51.3 °F 85% 29.86 in 10.0 mi Calm Calm - N/A   Clear
4:35 AM 55.4 °F 51.4 °F 87% 29.86 in 10.0 mi Calm Calm - N/A   Clear
4:54 AM 53.6 °F 50.5 °F 89% 29.86 in 10.0 mi Calm Calm - N/A   Clear
5:14 AM 54.5 °F 51.3 °F 89% 29.85 in 10.0 mi Calm Calm - N/A   Clear
5:35 AM 54.7 °F 51.3 °F 88% 29.86 in 10.0 mi Calm Calm - N/A   Clear
5:54 AM 53.2 °F 50.2 °F 89% 29.86 in 10.0 mi Calm Calm - N/A   Clear
6:15 AM 54.5 °F 51.8 °F 91% 29.86 in 10.0 mi ESE 3.5 mph - N/A   Clear
6:35 AM 54.5 °F 52.0 °F 91% 29.86 in 10.0 mi SE 3.5 mph - N/A   Clear
6:54 AM 54.7 °F 52.2 °F 91% 29.86 in 10.0 mi SE 3.5 mph - N/A   Clear
7:15 AM 55.6 °F 52.3 °F 89% 29.86 in 10.0 mi Calm Calm - N/A   Clear
7:35 AM 57.2 °F 52.9 °F 85% 29.86 in 7.0 mi Calm Calm - N/A   Clear
7:54 AM 59.7 °F 53.4 °F 80% 29.87 in 7.0 mi Calm Calm - N/A   Clear
8:15 AM 62.6 °F 53.2 °F 71% 29.87 in 10.0 mi ESE 3.5 mph - N/A   Clear
8:35 AM 64.9 °F 53.6 °F 67% 29.87 in 7.0 mi East 4.6 mph - N/A   Clear
8:54 AM 65.5 °F 54.1 °F 67% 29.87 in 7.0 mi Calm Calm - N/A   Clear
9:15 AM 67.5 °F 53.1 °F 60% 29.87 in 5.0 mi East 4.6 mph - N/A   Haze
9:35 AM 67.8 °F 54.5 °F 62% 29.87 in 7.0 mi East 3.5 mph - N/A   Clear
9:54 AM 70.2 °F 51.1 °F 51% 29.87 in 10.0 mi Calm Calm - N/A   Clear
10:15 AM 71.8 °F 51.3 °F 48% 29.87 in 7.0 mi SSW 3.5 mph - N/A   Clear
10:35 AM 73.2 °F 50.5 °F 45% 29.87 in 10.0 mi Calm Calm - N/A   Clear
10:54 AM 73.8 °F 49.6 °F 43% 29.87 in 10.0 mi SW 5.8 mph - N/A   Clear
11:15 AM 74.7 °F 50.2 °F 42% 29.87 in 10.0 mi WSW 4.6 mph - N/A   Clear
11:35 AM 74.7 °F 44.6 °F 34% 29.87 in 7.0 mi SW 8.1 mph - N/A   Clear
11:54 AM 75.4 °F 45.1 °F 34% 29.86 in 10.0 mi WSW 3.5 mph - N/A   Clear
12:15 PM 76.1 °F 45.1 °F 33% 29.86 in 10.0 mi WSW 8.1 mph - N/A   Clear
12:35 PM 76.6 °F 44.2 °F 32% 29.86 in 10.0 mi SSW 5.8 mph - N/A   Clear
12:54 PM 77.2 °F 42.8 °F 29% 29.85 in 10.0 mi SSW 4.6 mph - N/A   Clear
1:15 PM 77.5 °F 41.2 °F 27% 29.85 in 10.0 mi SW 9.2 mph - N/A   Clear
1:35 PM 77.9 °F 39.4 °F 25% 29.85 in 10.0 mi SSW 8.1 mph - N/A   Clear
1:54 PM 78.4 °F 35.8 °F 21% 29.85 in 7.0 mi SSW 9.2 mph - N/A   Clear
2:15 PM 78.6 °F 38.8 °F 24% 29.85 in 7.0 mi SSW 5.8 mph - N/A   Clear
2:35 PM 78.8 °F 45.5 °F 31% 29.84 in 7.0 mi SSW 9.2 mph - N/A   Clear
2:54 PM 79.0 °F 47.1 °F 32% 29.84 in 10.0 mi WSW 8.1 mph - N/A   Clear
3:15 PM 79.9 °F 47.7 °F 32% 29.83 in 10.0 mi West 8.1 mph - N/A   Clear
3:34 PM 79.3 °F 47.5 °F 33% 29.82 in 10.0 mi WNW 10.4 mph - N/A   Clear
3:55 PM 78.6 °F 48.6 °F 35% 29.82 in 10.0 mi West 9.2 mph - N/A   Clear
4:15 PM 78.8 °F 49.5 °F 36% 29.81 in 10.0 mi WNW 9.2 mph - N/A   Clear
4:34 PM 78.3 °F 50.4 °F 38% 29.80 in 10.0 mi WNW 9.2 mph - N/A   Clear
4:55 PM 78.3 °F 50.4 °F 38% 29.80 in 10.0 mi WNW 6.9 mph - N/A   Clear
5:15 PM 76.3 °F 50.7 °F 41% 29.80 in 10.0 mi NW 8.1 mph - N/A   Clear
5:34 PM 77.4 °F 49.8 °F 38% 29.80 in 10.0 mi West 8.1 mph - N/A   Clear
5:55 PM 76.3 °F 48.9 °F 38% 29.80 in 10.0 mi WNW 6.9 mph - N/A   Clear
6:15 PM 72.9 °F 55.6 °F 55% 29.80 in 10.0 mi NW 9.2 mph - N/A   Clear
6:34 PM 71.6 °F 53.4 °F 53% 29.81 in 10.0 mi WNW 8.1 mph - N/A   Clear
6:55 PM 70.7 °F 52.9 °F 53% 29.80 in 10.0 mi West 8.1 mph - N/A   Clear
7:15 PM 69.3 °F 51.8 °F 54% 29.80 in 10.0 mi West 8.1 mph - N/A   Clear
7:34 PM 67.8 °F 53.1 °F 59% 29.81 in 10.0 mi West 13.8 mph - N/A   Clear
7:55 PM 65.8 °F 54.7 °F 67% 29.83 in 10.0 mi WSW 11.5 mph - N/A   Mostly Cloudy
8:15 PM 66.2 °F 53.6 °F 64% 29.83 in 10.0 mi SW 5.8 mph - N/A   Scattered Clouds
8:34 PM 67.1 °F 54.0 °F 63% 29.82 in 10.0 mi WSW 3.5 mph - N/A   Scattered Clouds
8:55 PM 66.7 °F 54.9 °F 66% 29.82 in 10.0 mi SW 3.5 mph - N/A   Mostly Cloudy
9:15 PM 65.7 °F 55.4 °F 69% 29.82 in 10.0 mi West 3.5 mph - N/A   Mostly Cloudy
9:34 PM 66.4 °F 55.4 °F 68% 29.82 in 10.0 mi SE 3.5 mph - N/A   Overcast
9:55 PM 67.3 °F 55.4 °F 66% 29.83 in 10.0 mi SSE 4.6 mph - N/A   Overcast
10:15 PM 66.9 °F 55.8 °F 67% 29.83 in 10.0 mi Calm Calm - N/A   Overcast
10:34 PM 66.6 °F 56.1 °F 69% 29.83 in 10.0 mi Calm Calm - N/A   Overcast
10:55 PM 67.3 °F 56.5 °F 68% 29.83 in 10.0 mi ESE 3.5 mph - N/A   Mostly Cloudy
11:14 PM 65.7 °F 56.3 °F 72% 29.83 in 10.0 mi Calm Calm - N/A   Mostly Cloudy
11:35 PM 65.8 °F 56.8 °F 73% 29.82 in 10.0 mi Calm Calm - N/A   Overcast
11:55 PM 65.7 °F 56.7 °F 73% 29.82 in 10.0 mi Calm Calm - N/A   Mostly Cloudy